KC2DUX Weather Reports


Display with metric or nautical units.
time (UTC)temp
F
wind
direction
speed
MPH
gust
MPH
rain 1hr
in
rain 24hr
in
rain mn
in
humidity
%
barometer
mb
20260901133546 80 238 4.0 10.0 0.00 0.00 0.00 86 1016.0
20260901133100 80 287 5.0 10.0 0.00 0.00 0.00 87 1016.1
20260901132548 79 264 4.0 7.0 0.00 0.00 0.00 87 1016.0
20260901132044 79 247 3.0 8.0 0.00 0.00 0.00 88 1016.0
20260901131546 79 213 3.0 9.0 0.00 0.00 0.00 88 1016.1
20260901131046 79 225 3.0 9.0 0.00 0.00 0.00 88 1016.1
20260901130542 79 254 3.0 9.0 0.00 0.00 0.00 89 1016.2
20260901130041 79 213 4.0 9.0 0.00 0.00 0.00 89 1016.1
20260901125540 79 252 3.0 9.0 0.00 0.00 0.00 90 1016.3
20260901125039 78 241 2.0 7.0 0.00 0.00 0.00 90 1016.3
20260901124539 78 213 4.0 7.0 0.00 0.00 0.00 90 1016.3
20260901124038 78 236 4.0 8.0 0.00 0.00 0.00 91 1016.3
20260901123538 78 259 3.0 8.0 0.00 0.00 0.00 91 1016.3
20260901123040 78 218 4.0 8.0 0.00 0.00 0.00 91 1016.3
20260901122536 78 271 4.0 8.0 0.00 0.00 0.00 91 1016.3
20260901122036 78 220 1.0 7.0 0.00 0.00 0.00 92 1016.3
20260901121545 78 232 2.0 7.0 0.00 0.00 0.00 92 1016.4
20260901121036 78 239 4.0 7.0 0.00 0.00 0.00 92 1016.4
20260901120534 78 244 3.0 8.0 0.00 0.00 0.00 93 1016.3
20260901120037 77 232 3.0 6.0 0.00 0.00 0.00 93 1016.3
20260901115537 77 226 2.0 7.0 0.00 0.00 0.00 94 1016.3
20260901115034 77 203 2.0 7.0 0.00 0.00 0.00 94 1016.3
20260901114532 77 227 2.0 7.0 0.00 0.00 0.00 94 1016.3
20260901114031 77 240 2.0 5.0 0.00 0.00 0.00 94 1016.3
20260901113531 76 220 1.0 2.0 0.00 0.00 0.00 94 1016.4
20260901113030 76 223 0.0 3.0 0.00 0.00 0.00 95 1016.3
20260901112529 76 219 2.0 6.0 0.00 0.00 0.00 95 1016.3
20260901112029 76 283 1.0 6.0 0.00 0.00 0.00 95 1016.5
20260901111531 76 214 1.0 4.0 0.00 0.00 0.00 95 1016.4
20260901111028 75 273 0.0 4.0 0.00 0.00 0.00 95 1016.4
20260901110527 75 248 1.0 4.0 0.00 0.00 0.00 95 1016.3
20260901110026 75 265 0.0 2.0 0.00 0.00 0.00 95 1016.3
20260901105526 75 255 0.0 2.0 0.00 0.00 0.00 95 1016.1
20260901105028 74 246 0.0 1.0 0.00 0.00 0.00 95 1016.1
20260901104534 74 262 0.0 1.0 0.00 0.00 0.00 94 1016.0
20260901104023 74 262 0.0 2.0 0.00 0.00 0.00 94 1015.9
20260901103523 74 262 0.0 3.0 0.00 0.00 0.00 94 1015.7
20260901103029 74 210 0.0 3.0 0.00 0.00 0.00 95 1015.7
20260901102522 74 200 0.0 3.0 0.00 0.00 0.00 94 1015.7
20260901102022 74 207 1.0 4.0 0.00 0.00 0.00 94 1015.7
20260901101521 74 215 1.0 4.0 0.00 0.00 0.00 94 1015.7
20260901101020 74 210 0.0 2.0 0.00 0.00 0.00 94 1015.7
20260901100520 74 210 0.0 2.0 0.00 0.00 0.00 94 1015.8
20260901100019 74 212 1.0 2.0 0.00 0.00 0.00 94 1015.9
20260901095517 74 229 1.0 2.0 0.00 0.00 0.00 94 1016.0
20260901095017 73 209 0.0 1.0 0.00 0.00 0.00 94 1016.0
20260901094521 73 209 0.0 2.0 0.00 0.00 0.00 94 1016.0
20260901094017 73 209 0.0 2.0 0.00 0.00 0.00 94 1016.0
20260901093516 73 209 0.0 3.0 0.00 0.00 0.00 94 1016.0
20260901093018 73 207 0.0 3.0 0.00 0.00 0.00 94 1016.0
20260901092515 73 200 0.0 3.0 0.00 0.00 0.00 94 1016.1
20260901092015 73 244 0.0 3.0 0.00 0.00 0.00 94 1016.1
20260901091515 73 221 0.0 3.0 0.00 0.00 0.00 94 1016.0
20260901091015 73 223 1.0 3.0 0.00 0.00 0.00 95 1016.0
20260901090512 73 245 0.0 3.0 0.00 0.00 0.00 94 1016.1
20260901090011 73 240 1.0 3.0 0.00 0.00 0.00 94 1016.0
20260901085509 73 223 1.0 2.0 0.00 0.00 0.00 94 1016.0
20260901085009 73 205 0.0 2.0 0.00 0.00 0.00 95 1016.1
20260901084508 72 205 1.0 2.0 0.00 0.00 0.00 95 1016.1
20260901084008 72 196 0.0 2.0 0.00 0.00 0.00 94 1016.1
20260901083507 72 196 0.0 1.0 0.00 0.00 0.00 94 1016.2
20260901083004 72 196 0.0 1.0 0.00 0.00 0.00 94 1016.2
20260901082504 72 196 0.0 1.0 0.00 0.00 0.00 94 1016.2
20260901082002 72 196 0.0 0.0 0.00 0.00 0.00 94 1016.2
20260901081601 72 196 0.0 1.0 0.00 0.00 0.00 94 1016.2
20260901081058 72 196 0.0 1.0 0.00 0.00 0.00 94 1016.2
20260901080603 72 196 0.0 2.0 0.00 0.00 0.00 94 1016.2
20260901080110 72 196 0.0 2.0 0.00 0.00 0.00 94 1016.2
20260901075556 72 196 0.0 1.0 0.00 0.03 0.00 94 1016.2
20260901075056 72 196 0.0 1.0 0.00 0.03 0.00 94 1016.3
20260901074554 72 196 0.0 1.0 0.00 0.03 0.00 94 1016.3
20260901074056 72 196 0.0 1.0 0.00 0.03 0.00 94 1016.4
20260901073554 72 196 0.0 1.0 0.00 0.03 0.00 94 1016.4
20260901073054 71 196 0.0 1.0 0.00 0.03 0.00 94 1016.5
20260901072554 71 196 0.0 0.0 0.00 0.03 0.00 94 1016.6
20260901072054 71 196 0.0 0.0 0.00 0.03 0.00 94 1016.6
20260901071602 71 196 0.0 0.0 0.00 0.03 0.00 94 1016.6
20260901071055 71 196 0.0 1.0 0.00 0.03 0.00 94 1016.6
20260901070553 71 196 0.0 1.0 0.00 0.03 0.00 94 1016.5
20260901070100 71 196 0.0 0.0 0.00 0.03 0.00 94 1016.5
20260901065556 71 196 0.0 0.0 0.00 0.06 0.00 93 1016.4
20260901065053 71 196 0.0 0.0 0.00 0.06 0.00 93 1016.4
20260901064607 71 196 0.0 1.0 0.00 0.06 0.00 93 1016.5
20260901064052 71 196 0.0 1.0 0.00 0.06 0.00 93 1016.4
20260901063549 71 196 0.0 1.0 0.00 0.06 0.00 93 1016.6
20260901063109 71 196 0.0 1.0 0.00 0.06 0.00 93 1016.6
20260901062548 71 196 0.0 1.0 0.00 0.06 0.00 93 1016.7
20260901062047 71 196 0.0 1.0 0.00 0.06 0.00 93 1016.9
20260901061549 72 196 0.0 1.0 0.00 0.06 0.00 93 1017.0
20260901061047 72 196 0.0 1.0 0.00 0.06 0.00 93 1016.9
20260901060549 72 196 0.0 2.0 0.00 0.06 0.00 94 1016.9
20260901060046 72 196 0.0 2.0 0.00 0.06 0.00 94 1016.9
20260901055545 72 195 0.0 1.0 0.00 0.06 0.00 93 1016.9
20260901055044 72 195 0.0 1.0 0.00 0.06 0.00 93 1017.0
20260901054544 71 197 0.0 1.0 0.00 0.06 0.00 93 1017.2
20260901054042 72 197 0.0 1.0 0.00 0.06 0.00 93 1017.3
20260901053545 72 197 0.0 1.0 0.00 0.06 0.00 93 1017.4
20260901053041 72 197 0.0 0.0 0.00 0.06 0.00 93 1017.5
20260901052541 72 197 0.0 0.0 0.00 0.06 0.00 93 1017.5
20260901052039 72 197 0.0 0.0 0.00 0.06 0.00 93 1017.4
20260901051539 72 197 0.0 0.0 0.00 0.06 0.00 93 1017.5
20260901051037 72 197 0.0 1.0 0.00 0.06 0.00 93 1017.5
20260901050536 72 197 0.0 2.0 0.00 0.06 0.00 93 1017.5
20260901050035 72 197 0.0 2.0 0.00 0.06 0.00 93 1017.4
20260901045532 72 78 0.0 1.0 0.00 0.06 0.00 93 1017.5
20260901045031 72 78 0.0 1.0 0.00 0.06 0.00 93 1017.6
20260901044530 72 78 0.0 0.0 0.00 0.06 0.00 93 1017.6
20260901044031 72 78 0.0 0.0 0.00 0.06 0.00 93 1017.6
20260901043527 72 78 0.0 1.0 0.00 0.06 0.00 93 1017.6
20260901043026 72 78 0.0 1.0 0.00 0.06 0.00 93 1017.5
20260901042525 72 78 0.0 1.0 0.00 0.06 0.00 93 1017.5
20260901042025 72 78 0.0 0.0 0.00 0.06 0.00 93 1017.7
20260901041524 72 78 0.0 0.0 0.00 0.06 0.00 93 1017.7
20260901041024 72 78 0.0 0.0 0.00 0.06 0.00 93 1017.6
20260901040524 72 78 0.0 0.0 0.00 0.06 0.00 93 1017.6
20260901040022 72 78 0.0 0.0 0.00 0.06 0.00 93 1017.5
20260901035523 72 78 0.0 0.0 0.00 0.06 0.06 92 1017.4
20260901035022 72 78 0.0 0.0 0.00 0.06 0.06 93 1017.4
20260901034523 72 78 0.0 0.0 0.00 0.06 0.06 92 1017.4
20260901034021 72 78 0.0 0.0 0.00 0.06 0.06 92 1017.3
20260901033521 72 78 0.0 0.0 0.00 0.06 0.06 92 1017.3
20260901033033 72 78 0.0 0.0 0.00 0.06 0.06 92 1017.3
20260901032520 72 78 0.0 0.0 0.00 0.06 0.06 92 1017.4
20260901032020 72 78 0.0 0.0 0.00 0.06 0.06 92 1017.4
20260901031523 72 78 0.0 1.0 0.00 0.06 0.06 92 1017.4
20260901031018 72 78 0.0 1.0 0.00 0.06 0.06 92 1017.4
20260901030520 72 78 0.0 1.0 0.00 0.06 0.06 92 1017.5
20260901030018 72 78 0.0 1.0 0.00 0.06 0.06 92 1017.7
20260901025518 72 78 0.0 1.0 0.00 0.06 0.06 92 1017.7
20260901025019 72 78 0.0 1.0 0.00 0.06 0.06 92 1017.7
20260901024518 72 78 0.0 1.0 0.00 0.06 0.06 91 1017.7
20260901024019 72 78 0.0 2.0 0.00 0.06 0.06 91 1017.7
20260901023518 72 78 0.0 2.0 0.00 0.06 0.06 92 1017.8
20260901023018 72 95 0.0 1.0 0.00 0.06 0.06 91 1017.8
20260901022518 72 95 0.0 1.0 0.00 0.06 0.06 91 1017.8
20260901022018 72 95 0.0 1.0 0.00 0.06 0.06 91 1017.8
20260901021537 72 95 0.0 2.0 0.00 0.06 0.06 91 1017.9
20260901021018 72 103 0.0 2.0 0.00 0.06 0.06 91 1017.9
20260901020520 72 125 0.0 1.0 0.00 0.06 0.06 91 1017.9
20260901020016 72 223 0.0 1.0 0.00 0.06 0.06 91 1017.8
20260901015515 72 223 0.0 1.0 0.00 0.06 0.06 91 1017.8
20260901015016 72 223 0.0 1.0 0.00 0.06 0.06 91 1017.8
20260901014515 73 224 0.0 1.0 0.00 0.06 0.06 91 1017.9
20260901014015 73 224 0.0 2.0 0.00 0.06 0.06 90 1017.9
20260901013517 73 224 0.0 2.0 0.00 0.06 0.06 91 1017.8
20260901013023 73 219 1.0 2.0 0.00 0.06 0.06 91 1017.7
20260901012515 72 179 0.0 1.0 0.00 0.06 0.06 90 1017.6
20260901012017 73 179 0.0 1.0 0.00 0.06 0.06 90 1017.6
20260901011519 73 220 0.0 2.0 0.00 0.06 0.06 90 1017.7
20260901011014 73 220 0.0 2.0 0.00 0.06 0.06 90 1017.8
20260901010514 73 220 0.0 1.0 0.00 0.06 0.06 90 1017.8
20260901010033 73 220 0.0 1.0 0.00 0.06 0.06 89 1017.8
20260901005514 73 233 0.0 1.0 0.00 0.06 0.06 89 1017.8
20260901005013 73 234 0.0 1.0 0.00 0.06 0.06 89 1017.7
20260901004515 73 234 0.0 1.0 0.00 0.06 0.06 89 1017.6
20260901004013 73 233 0.0 2.0 0.00 0.06 0.06 89 1017.7
20260901003513 73 234 0.0 2.0 0.00 0.06 0.06 88 1017.5
20260901003019 73 223 1.0 2.0 0.00 0.06 0.06 88 1017.4
20260901002512 73 186 0.0 2.0 0.00 0.06 0.06 87 1017.5
20260901002012 73 186 0.0 2.0 0.00 0.06 0.06 87 1017.6
20260901001511 74 181 0.0 1.0 0.00 0.06 0.06 87 1017.6
20260901001010 74 181 0.0 0.0 0.00 0.06 0.06 86 1017.7
20260901000510 74 181 0.0 0.0 0.00 0.06 0.06 86 1017.6
20260901000010 74 182 0.0 0.0 0.00 0.06 0.06 86 1017.7
20260831235515 74 182 0.0 1.0 0.00 0.06 0.06 86 1017.7
20260831235011 74 182 0.0 1.0 0.00 0.06 0.06 85 1017.7
20260831234510 74 182 0.0 1.0 0.00 0.06 0.06 85 1017.8
20260831234010 75 170 0.0 1.0 0.00 0.06 0.06 85 1017.9
20260831233510 75 191 0.0 2.0 0.00 0.06 0.06 85 1017.9
20260831233009 75 217 0.0 2.0 0.00 0.06 0.06 84 1018.0
20260831232513 75 109 0.0 2.0 0.00 0.06 0.06 84 1017.9
20260831232010 75 150 0.0 2.0 0.00 0.06 0.06 84 1018.1
20260831231509 75 202 0.0 3.0 0.00 0.06 0.06 83 1018.1
20260831231008 75 120 0.0 3.0 0.00 0.06 0.06 83 1018.0
20260831230508 76 150 0.0 3.0 0.00 0.06 0.06 83 1017.9
20260831230008 76 147 1.0 4.0 0.00 0.06 0.06 83 1018.0
20260831225506 76 77 1.0 4.0 0.00 0.06 0.06 83 1017.9
20260831225008 76 102 1.0 3.0 0.00 0.06 0.06 83 1017.9
20260831224508 76 67 0.0 3.0 0.00 0.06 0.06 82 1018.0
20260831224006 76 101 1.0 3.0 0.00 0.06 0.06 82 1018.2
20260831223506 76 67 1.0 2.0 0.00 0.06 0.06 82 1018.1
20260831223014 76 123 0.0 4.0 0.00 0.06 0.06 82 1018.2
20260831222506 76 103 2.0 4.0 0.00 0.06 0.06 81 1018.2
20260831222005 76 130 0.0 5.0 0.00 0.06 0.06 81 1018.2
20260831221511 76 148 1.0 5.0 0.00 0.06 0.06 81 1018.2
20260831221004 76 174 1.0 6.0 0.00 0.06 0.06 80 1018.2
20260831220504 77 92 1.0 6.0 0.00 0.06 0.06 80 1018.3
20260831220006 77 164 1.0 6.0 0.00 0.06 0.06 80 1018.5
20260831215506 77 124 2.0 6.0 0.00 0.06 0.06 79 1018.5
20260831215004 77 80 2.0 8.0 0.00 0.06 0.06 79 1018.4
20260831214503 77 129 3.0 8.0 0.00 0.06 0.06 78 1018.3
20260831214003 78 153 1.0 7.0 0.00 0.06 0.06 78 1018.3
20260831213503 78 132 3.0 7.0 0.00 0.06 0.06 77 1018.3
20260831213002 78 128 2.0 9.0 0.00 0.06 0.06 77 1018.3
20260831212502 79 48 4.0 9.0 0.00 0.06 0.06 76 1018.2
20260831212002 79 88 2.0 6.0 0.00 0.06 0.06 76 1018.2
20260831211505 79 139 2.0 9.0 0.00 0.06 0.06 76 1018.2
20260831211002 79 82 1.0 11.0 0.00 0.06 0.06 75 1018.1
20260831210500 79 330 2.0 11.0 0.00 0.06 0.06 75 1018.1
20260831210103 80 140 3.0 10.0 0.00 0.06 0.06 75 1018.1
20260831205603 80 78 4.0 8.0 0.00 0.06 0.06 75 1018.1
20260831205100 80 130 3.0 8.0 0.00 0.06 0.06 75 1018.1
20260831204600 80 87 2.0 9.0 0.00 0.06 0.06 76 1018.1
20260831204100 79 215 3.0 9.0 0.00 0.06 0.06 75 1018.2
20260831203559 79 123 3.0 8.0 0.00 0.06 0.06 79 1018.2
20260831203501 79 128 3.0 7.0 0.00 0.06 0.06 78 1018.2
20260831203059 79 124 3.0 7.0 0.00 0.06 0.06 78 1018.3
20260831202558 78 105 3.0 6.0 0.00 0.06 0.06 79 1018.2
20260831202058 78 92 3.0 9.0 0.00 0.06 0.06 78 1018.1
20260831201604 79 98 3.0 9.0 0.00 0.06 0.06 78 1018.2
20260831201059 79 123 2.0 6.0 0.00 0.06 0.06 78 1018.3
20260831200557 79 117 2.0 7.0 0.00 0.06 0.06 78 1018.3
20260831200058 79 88 3.0 7.0 0.00 0.06 0.06 78 1018.3
20260831195558 79 59 3.0 5.0 0.00 0.06 0.06 77 1018.4
20260831195057 79 77 2.0 8.0 0.00 0.06 0.06 77 1018.5
20260831194638 79 92 3.0 5.0 0.00 0.06 0.06 76 1018.5
20260831194056 79 89 1.0 6.0 0.00 0.06 0.06 76 1018.5
20260831193555 79 139 2.0 6.0 0.00 0.06 0.06 76 1018.5
20260831193055 79 113 2.0 7.0 0.00 0.06 0.06 76 1018.4
20260831192554 79 94 1.0 8.0 0.00 0.06 0.06 75 1018.4
20260831192054 80 137 3.0 8.0 0.00 0.06 0.06 74 1018.4
20260831191556 80 64 2.0 7.0 0.00 0.06 0.06 74 1018.4
20260831191053 80 71 3.0 7.0 0.00 0.06 0.06 72 1018.6
20260831190553 81 142 2.0 7.0 0.00 0.06 0.06 72 1018.6
20260831185553 82 117 2.0 7.0 0.00 0.06 0.06 72 1018.6
20260831185054 81 86 0.0 7.0 0.00 0.06 0.06 71 1018.6
20260831184558 81 96 2.0 8.0 0.00 0.06 0.06 70 1018.6
20260831184051 82 25 2.0 7.0 0.00 0.06 0.06 71 1018.6
20260831183552 80 72 1.0 5.0 0.00 0.06 0.06 74 1018.6
20260831183051 80 140 2.0 6.0 0.00 0.06 0.06 74 1018.6
20260831182550 80 100 3.0 6.0 0.00 0.06 0.06 74 1018.6
20260831182050 80 138 1.0 7.0 0.00 0.06 0.06 74 1018.7
20260831181551 80 87 2.0 7.0 0.00 0.06 0.06 74 1018.8
20260831181052 80 205 2.0 6.0 0.00 0.06 0.06 74 1018.8
20260831180548 80 132 2.0 5.0 0.00 0.06 0.06 74 1018.9
20260831180049 80 112 2.0 5.0 0.00 0.06 0.06 74 1018.8
20260831175548 80 82 3.0 5.0 0.00 0.06 0.06 74 1018.8
20260831175048 80 42 2.0 7.0 0.00 0.06 0.06 73 1018.9
20260831174551 80 135 2.0 9.0 0.00 0.06 0.06 75 1018.9
20260831174050 80 96 3.0 8.0 0.00 0.06 0.06 73 1018.9
20260831173546 80 117 1.0 4.0 0.00 0.06 0.06 75 1019.0
20260831173048 80 115 2.0 4.0 0.00 0.06 0.06 74 1018.9
20260831172546 80 248 2.0 4.0 0.00 0.06 0.06 75 1018.9
20260831172046 80 119 2.0 6.0 0.00 0.06 0.06 75 1018.9
20260831171547 80 114 2.0 6.0 0.00 0.06 0.06 74 1019.0
20260831171045 80 225 0.0 3.0 0.00 0.06 0.06 75 1019.0
20260831170544 79 96 1.0 4.0 0.00 0.06 0.06 73 1019.0
20260831170045 80 143 1.0 6.0 0.00 0.06 0.06 74 1018.9
20260831165543 80 80 3.0 6.0 0.00 0.06 0.06 72 1019.0
20260831165043 80 156 2.0 8.0 0.00 0.06 0.06 72 1018.9
20260831164543 81 79 1.0 8.0 0.00 0.06 0.06 73 1018.9
20260831164043 82 161 2.0 8.0 0.00 0.06 0.06 70 1018.9
20260831163542 82 160 4.0 8.0 0.00 0.06 0.06 70 1018.9
20260831163042 82 111 2.0 5.0 0.00 0.06 0.06 69 1019.0
20260831162541 81 208 1.0 7.0 0.00 0.06 0.06 71 1019.0
20260831162043 81 88 2.0 4.0 0.00 0.06 0.06 73 1019.0
20260831161541 80 115 1.0 7.0 0.00 0.06 0.06 71 1019.1
20260831161042 80 90 3.0 7.0 0.00 0.06 0.06 70 1019.1
20260831160538 81 38 1.0 6.0 0.00 0.06 0.06 70 1019.2
20260831160039 81 109 1.0 7.0 0.00 0.06 0.06 70 1019.2
20260831155538 81 144 1.0 7.0 0.00 0.06 0.06 69 1019.2
20260831155039 81 80 2.0 8.0 0.00 0.06 0.06 69 1019.2
20260831154541 81 153 4.0 8.0 0.00 0.06 0.06 68 1019.1
20260831154036 82 187 1.0 7.0 0.00 0.06 0.06 68 1019.1
20260831153536 81 37 1.0 10.0 0.00 0.06 0.06 70 1019.0
20260831153038 82 121 3.0 10.0 0.00 0.06 0.06 69 1019.0
20260831152534 81 262 1.0 5.0 0.00 0.06 0.06 72 1019.1
20260831152035 81 123 1.0 4.0 0.00 0.06 0.06 72 1019.1
20260831151534 81 84 1.0 4.0 0.00 0.06 0.06 74 1019.1
20260831151035 81 88 1.0 4.0 0.00 0.06 0.06 71 1019.2
20260831150531 81 222 0.0 5.0 0.00 0.06 0.06 75 1019.2
20260831150031 81 91 2.0 8.0 0.00 0.06 0.06 74 1019.2
20260831145530 80 114 2.0 8.0 0.00 0.06 0.06 74 1019.2
20260831145028 80 26 2.0 11.0 0.00 0.06 0.06 75 1019.2
20260831144527 80 65 3.0 11.0 0.00 0.06 0.06 76 1019.2
20260831144026 79 36 1.0 6.0 0.00 0.06 0.06 78 1019.2
20260831143529 79 108 2.0 6.0 0.00 0.06 0.06 78 1019.2
20260831143025 78 130 2.0 7.0 0.00 0.06 0.06 80 1019.1
20260831142527 77 80 2.0 7.0 0.00 0.06 0.06 80 1019.1
20260831142023 77 60 2.0 9.0 0.00 0.06 0.06 80 1019.1
20260831141523 78 22 0.0 5.0 0.00 0.06 0.06 79 1019.1
20260831141022 78 148 2.0 5.0 0.00 0.06 0.06 79 1019.1
20260831140521 78 113 0.0 4.0 0.00 0.06 0.06 82 1019.1
20260831140023 78 79 2.0 4.0 0.00 0.06 0.06 81 1019.2
20260831135520 78 355 1.0 6.0 0.00 0.06 0.06 83 1019.2
20260831135020 77 360 1.0 4.0 0.00 0.06 0.06 84 1019.2
20260831134519 76 108 2.0 4.0 0.00 0.06 0.06 85 1019.2
20260831134018 76 87 0.0 3.0 0.00 0.06 0.06 87 1019.2